Wind_Speed
4 6 4 3 4 6 5 5 10 12 16 25 25 23 24 29 28 27 27 27 24 19 18 18 18 18 16 14 9 3 3 2 5 7 8 3 6 7 9 11 12 17 21
10 10 8 5 5 7 5 5 12 14 14 22 26 25 25 29 30 30 28 27 26 22 21 20 19 17 18 18 14 11 8 5 4 8 8 5 7 11 10 11 12 15 21
5 11 7 4 6 5 8 5 5 15 13 18 25 25 28 26 29 33 32 34 32 31 28 26 23 23 22 21 18 15 11 5 10 11 8 8 9 9 9 11 13 16 15
6 4 3 5 6 7 5 9 5 11 15 15 24 29 29 30 27 29 30 33 34 30 30 28 27 27 27 22 18 14 7 8 11 15 15 11 12 11 9 11 13 11 15
3 3 6 11 14 11 11 6 7 6 12 14 18 27 27 28 30 29 28 28 28 31 32 28 27 28 26 23 21 20 21 16 13 8 12 12 12 14 10 8 11 17 14
4 8 10 10 10 8 11 14 10 8 10 14 15 21 27 27 27 30 30 28 27 27 28 29 29 27 26 26 24 24 24 23 24 20 14 15 15 13 14 15 18 14 15
5 9 4 6 10 8 15 12 11 9 9 11 14 17 22 28 28 27 32 31 28 28 28 29 30 28 29 28 28 28 28 27 27 25 25 21 23 18 18 18 19 17 18
10 7 11 4 4 8 11 11 9 7 9 8 10 16 21 23 27 29 30 34 32 26 26 30 31 31 32 33 33 32 30 31 27 26 29 27 27 23 21 21 22 21 20
13 10 9 7 9 6 10 13 13 7 7 11 12 13 18 23 25 29 30 30 34 35 34 32 31 31 33 34 34 33 32 29 30 29 29 29 28 25 25 26 26 23 19
20 12 15 8 7 9 12 14 16 8 7 9 12 14 15 18 22 24 29 33 32 31 34 35 34 34 34 35 35 35 34 34 33 33 33 32 31 34 31 28 26 26 23
29 24 22 16 16 16 17 28 14 11 7 7 8 6 12 18 19 22 26 28 32 35 36 34 32 35 36 37 38 36 37 38 36 35 37 33 33 33 33 31 29 28 28
34 26 22 20 18 23 8 15 18 15 15 15 16 8 8 20 20 20 22 25 27 28 30 35 38 38 37 35 38 40 42 43 43 42 43 40 39 38 38 37 34 32 32
37 34 30 29 24 35 21 11 18 20 25 30 20 15 14 17 22 20 22 24 25 26 25 24 25 28 31 35 38 42 41 42 43 45 46 46 46 47 48 45 44 40 37
36 39 35 32 47 40 34 31 28 32 29 27 23 22 21 30 24 21 21 24 24 25 26 26 24 22 23 25 26 30 38 42 43 45 46 46 46 46 49 49 46 45 43
37 40 41 41 55 50 41 43 42 37 40 40 43 33 31 31 27 23 20 20 22 24 25 25 25 24 25 26 30 32 34 34 35 37 40 43 44 44 42 41 44 47 47
43 42 44 48 51 48 47 45 52 38 41 36 34 36 29 28 25 24 20 19 20 22 25 27 24 23 24 24 26 30 35 38 40 41 42 42 44 45 45 46 46 46 44
42 48 53 58 55 52 51 50 54 58 51 38 40 45 43 34 31 27 21 20 21 20 24 26 26 23 24 22 22 23 23 23 23 23 23 27 25 26 30 31 32 36 44
44 52 60 56 59 64 66 60 60 62 61 62 58 51 53 41 32 28 20 20 20 21 21 22 23 25 26 25 22 21 19 18 16 16 17 19 19 16 18 21 21 22 29
49 58 64 66 66 70 71 72 69 73 68 68 71 69 65 51 40 35 27 23 20 20 21 20 21 22 24 22 20 18 21 21 19 18 14 15 13 13 11 13 14 13 15
44 57 64 69 73 70 66 68 66 66 68 62 66 70 68 56 47 45 36 27 23 16 14 13 11 11 8 10 12 17 20 20 18 15 14 14 13 13 10 7 9 12 8
42 48 59 63 67 69 65 64 66 66 66 65 63 64 61 60 54 47 43 33 24 14 9 5 11 11 9 19 23 31 23 21 22 23 18 17 18 19 17 15 19 19 18
48 44 51 59 61 63 63 61 69 71 70 69 66 64 62 60 57 50 45 33 26 17 19 19 8 11 26 36 38 38 37 38 31 25 21 20 22 22 22 20 17 19 21
53 51 50 54 63 64 60 60 63 69 69 68 71 70 67 64 58 49 41 37 34 33 30 17 14 25 33 38 44 42 40 41 40 36 37 33 33 27 22 18 16 19 20
55 54 54 55 57 61 67 67 65 71 80 77 77 76 72 66 60 48 43 43 45 48 33 27 63 61 44 55 39 49 49 37 54 40 37 39 37 34 30 24 23 21 26
61 57 56 57 60 62 62 62 63 63 65 69 74 76 76 70 61 53 50 49 56 54 44 42 42 49 52 58 69 66 62 65 66 60 54 49 49 48 40 36 34 40 34
66 61 56 55 57 60 55 55 57 57 56 57 66 74 74 74 70 61 56 57 61 61 52 49 43 46 53 54 61 62 62 66 67 64 54 51 60 60 57 45 39 49 44
Wind_Direction
50 15 48 323 246 234 179 221 225 205 208 206 209 207 208 207 204 201 208 211 209 205 201 198 206 216 223 239 254 224 250 268 308 327 22 36 47 31 22 34 0 3 9
20 17 2 16 312 268 264 201 207 207 218 206 213 213 210 209 209 210 209 210 210 214 223 225 217 220 235 237 238 222 242 269 304 310 316 328 310 357 7 1 1 350 9
3 357 352 17 357 309 268 258 227 204 206 210 209 221 219 215 210 218 219 221 218 222 230 238 233 235 231 223 217 219 247 245 318 310 288 301 304 318 335 352 352 7 9
316 327 348 34 33 343 300 270 254 219 216 216 214 216 221 221 219 221 221 225 230 226 228 231 233 238 241 240 228 230 202 226 235 288 290 286 296 303 317 337 338 348 359
226 143 72 60 50 11 338 312 270 259 233 224 221 218 222 224 225 224 228 228 226 231 232 234 236 234 236 235 229 210 204 216 235 280 278 268 292 291 289 292 310 325 320
167 100 102 72 58 21 2 338 296 246 245 237 226 221 221 227 230 228 228 233 231 229 227 227 227 233 233 235 229 222 222 224 233 249 265 254 267 260 270 262 288 261 296
162 183 158 5 340 5 345 349 323 262 237 248 244 232 226 229 234 234 227 230 232 231 228 229 228 230 235 233 239 237 239 235 235 237 253 251 262 257 253 266 277 288 295
253 214 211 185 218 19 11 352 343 326 248 243 256 250 244 236 237 233 229 234 234 233 239 236 233 232 234 240 241 241 240 236 237 237 242 252 254 262 261 270 275 280 289
199 168 185 206 210 213 349 348 344 314 273 259 266 259 250 247 242 240 237 235 236 237 234 238 236 236 234 236 239 241 243 243 241 240 244 247 249 249 256 257 272 276 270
196 239 252 181 196 220 273 310 315 309 266 271 261 271 262 255 247 247 244 243 242 240 243 243 241 242 240 239 240 242 244 247 245 246 246 247 249 249 259 262 265 266 259
210 232 198 229 256 226 251 276 301 305 285 253 257 248 284 273 261 255 252 249 245 243 244 247 247 247 246 246 245 245 247 248 249 252 252 251 253 255 251 249 255 259 255
230 233 239 208 198 207 167 275 258 270 271 254 245 247 291 293 274 263 258 258 254 254 253 252 252 254 253 252 252 250 251 251 252 253 258 257 255 255 257 255 253 252 259
223 222 219 217 210 210 220 244 248 254 265 265 243 242 268 297 288 270 260 259 258 257 256 256 257 256 255 255 256 254 254 256 259 261 262 263 262 261 259 258 255 253 257
219 218 214 216 191 207 217 247 248 242 236 239 243 256 267 294 280 269 266 261 260 262 260 256 255 253 252 255 257 257 257 259 262 264 264 265 267 268 266 261 258 257 254
236 218 218 210 204 224 234 227 241 234 241 243 251 256 271 278 284 265 264 262 255 259 262 259 258 258 262 264 261 259 259 260 262 266 268 270 270 268 267 265 262 259 256
245 242 229 223 218 227 234 227 236 230 245 249 257 261 262 278 281 271 261 258 251 251 255 261 261 262 263 264 263 261 261 263 264 266 269 271 273 274 271 267 264 260 257
232 236 237 222 223 226 232 234 229 232 231 236 251 254 266 267 268 268 267 263 262 261 255 255 258 258 260 258 264 268 268 269 273 274 279 281 289 294 294 291 282 269 258
231 234 238 232 225 225 224 230 233 229 234 237 238 250 256 257 245 255 269 270 271 269 266 260 257 250 255 255 259 263 253 242 244 259 277 283 294 304 310 313 307 291 268
234 233 233 236 234 228 225 226 232 234 232 241 245 247 255 255 247 253 259 269 273 272 274 272 264 261 263 264 265 252 242 242 248 262 269 277 292 308 321 328 338 323 299
239 235 232 235 238 239 230 230 233 236 237 240 242 247 249 247 239 256 257 263 264 272 273 266 274 269 283 297 322 303 282 247 238 247 254 247 267 280 295 305 336 340 336
239 242 241 236 237 243 244 237 236 236 238 239 237 238 244 250 249 247 250 255 249 255 211 110 90 75 7 336 332 327 323 306 283 260 247 245 246 252 256 262 281 289 290
256 244 243 244 241 240 237 233 232 232 233 236 240 241 242 244 247 242 240 237 232 205 170 144 120 322 308 309 311 305 308 309 288 281 278 260 260 253 250 257 270 285 279
253 250 246 247 247 246 243 239 232 229 228 233 237 239 239 238 239 236 231 221 215 197 202 222 276 298 296 293 303 288 292 296 287 272 270 274 273 262 258 262 262 273 285
256 250 247 247 245 247 248 245 242 234 232 236 233 237 238 237 235 230 226 215 212 211 206 229 273 277 282 267 269 276 282 274 273 271 266 275 267 261 267 266 264 278 282
258 254 250 246 245 244 239 241 242 243 244 242 237 237 239 240 237 230 225 218 213 213 207 214 232 235 227 239 252 262 270 269 263 269 271 279 275 261 258 262 273 283 273
258 256 250 245 245 247 247 243 240 238 239 243 241 237 236 236 238 233 226 221 219 217 209 207 222 233 231 238 249 253 259 257 258 260 266 266 272 273 265 263 274 282 275
Height
10984 10984 10983 10985 10984 10985 10985 10983 10985 10990 10992 10996 10999 11003 11006 11009 11011 11013 11015 11017 11020 11022 11023 11025 11025 11025 11027 11028 11028 11028 11027 11027 11028 11028 11028 11027 11025 11023 11022 11020 11019 11015 11012
10983 10981 10982 10982 10984 10982 10983 10984 10985 10988 10990 10993 10997 11001 11003 11006 11009 11012 11014 11016 11019 11020 11021 11023 11025 11026 11027 11027 11027 11028 11027 11028 11028 11029 11030 11029 11027 11025 11023 11021 11019 11016 11014
10983 10982 10982 10981 10984 10984 10983 10983 10982 10984 10987 10991 10994 10997 11000 11002 11005 11009 11012 11013 11015 11018 11020 11022 11024 11024 11024 11025 11026 11027 11026 11026 11026 11028 11029 11028 11028 11026 11023 11021 11019 11017 11015
10980 10980 10980 10980 10979 10984 10984 10983 10981 10981 10984 10987 10990 10993 10996 10999 11001 11004 11007 11010 11012 11015 11017 11018 11020 11020 11021 11022 11024 11025 11025 11024 11025 11025 11026 11027 11027 11026 11024 11022 11019 11018 11017
10976 10976 10977 10977 10976 10981 10982 10982 10980 10980 10981 10984 10986 10989 10993 10995 10998 11000 11002 11004 11007 11009 11012 11014 11016 11017 11018 11019 11020 11022 11022 11023 11024 11023 11024 11025 11025 11023 11022 11018 11020 11019 11018
10974 10974 10975 10973 10972 10976 10977 10977 10977 10976 10979 10981 10983 10985 10988 10991 10994 10996 10999 11000 11001 11003 11006 11009 11010 11012 11014 11015 11016 11018 11019 11020 11021 11020 11021 11021 11021 11020 11020 11020 11019 11019 11017
10973 10972 10968 10967 10968 10970 10971 10969 10970 10972 10973 10976 10979 10982 10984 10986 10989 10992 10994 10997 10997 10998 11001 11003 11005 11008 11009 11010 11012 11013 11014 11015 11017 11018 11018 11018 11018 11018 11017 11016 11016 11016 11016
10967 10964 10964 10960 10963 10965 10965 10967 10964 10967 10971 10972 10975 10977 10980 10982 10984 10987 10989 10991 10993 10995 10998 10998 11000 11002 11004 11005 11006 11006 11008 11009 11012 11014 11013 11014 11014 11014 11014 11013 11013 11013 11013
10963 10961 10960 10959 10959 10958 10963 10964 10959 10960 10964 10968 10970 10973 10974 10976 10978 10981 10984 10985 10987 10989 10992 10994 10995 10996 10998 10999 11000 11001 11003 11005 11006 11008 11008 11007 11009 11010 11010 11010 11008 11009 11010
10955 10954 10955 10960 10959 10957 10955 10954 10962 10955 10956 10961 10964 10968 10971 10972 10973 10975 10977 10979 10981 10983 10983 10986 10990 10991 10992 10993 10995 10997 10999 10998 11000 11001 11002 11002 11003 11003 11004 11004 11005 11004 11005
10953 10952 10959 10958 10952 10947 10946 10955 10955 10953 10954 10957 10959 10962 10968 10970 10970 10971 10971 10973 10974 10975 10977 10979 10981 10982 10985 10987 10989 10991 10990 10993 10994 10994 10994 10997 10996 10998 10998 10998 10998 10998 10998
10943 10946 10948 10949 10945 10940 10942 10960 10943 10942 10949 10954 10956 10959 10962 10966 10966 10966 10967 10967 10968 10969 10971 10973 10974 10974 10977 10979 10981 10983 10983 10982 10985 10985 10986 10989 10989 10989 10989 10990 10991 10991 10992
10934 10935 10942 10945 10941 10934 10935 10929 10926 10931 10942 10952 10952 10953 10957 10960 10962 10961 10962 10963 10963 10964 10965 10966 10966 10968 10969 10969 10971 10971 10972 10974 10975 10977 10978 10979 10979 10979 10980 10982 10984 10985 10984
10928 10928 10934 10939 10938 10938 10935 10929 10930 10933 10939 10945 10946 10947 10951 10955 10955 10955 10956 10957 10958 10959 10959 10960 10961 10962 10963 10963 10964 10964 10964 10964 10966 10967 10967 10968 10968 10968 10968 10971 10974 10976 10977
10916 10917 10918 10922 10923 10925 10929 10929 10927 10929 10931 10936 10940 10942 10946 10951 10950 10950 10950 10951 10952 10955 10956 10955 10955 10954 10954 10955 10955 10956 10956 10957 10957 10958 10957 10957 10956 10955 10957 10958 10960 10963 10966
10904 10906 10905 10906 10911 10913 10912 10914 10914 10919 10925 10928 10933 10937 10941 10945 10945 10947 10946 10946 10946 10949 10952 10952 10952 10951 10950 10949 10949 10949 10949 10949 10950 10949 10949 10947 10945 10945 10946 10947 10950 10951 10953
10894 10890 10888 10888 10894 10898 10899 10902 10908 10912 10918 10922 10922 10926 10932 10937 10941 10942 10941 10942 10943 10944 10946 10946 10946 10945 10944 10943 10943 10944 10944 10944 10943 10943 10941 10939 10938 10937 10935 10935 10935 10936 10938
10882 10878 10873 10879 10882 10881 10885 10891 10895 10902 10908 10911 10915 10915 10922 10926 10931 10934 10936 10937 10939 10939 10940 10940 10940 10939 10938 10939 10939 10940 10940 10940 10939 10940 10939 10937 10936 10935 10932 10930 10928 10927 10927
10860 10857 10858 10858 10860 10864 10872 10876 10880 10888 10893 10899 10902 10905 10909 10919 10923 10926 10930 10932 10933 10934 10936 10935 10935 10935 10936 10937 10937 10938 10939 10940 10940 10939 10938 10937 10935 10934 10932 10931 10929 10927 10926
10837 10837 10841 10841 10842 10847 10857 10868 10875 10877 10880 10885 10891 10893 10898 10906 10911 10917 10923 10927 10927 10929 10930 10929 10929 10932 10935 10938 10940 10941 10941 10940 10938 10936 10936 10935 10933 10933 10933 10931 10930 10930 10928
10819 10821 10823 10827 10832 10837 10847 10856 10860 10863 10865 10868 10875 10882 10886 10891 10897 10906 10914 10920 10921 10922 10924 10927 10930 10935 10939 10939 10940 10939 10938 10937 10935 10934 10930 10928 10927 10926 10927 10929 10928 10928 10929
10800 10804 10804 10805 10810 10817 10824 10831 10835 10844 10849 10854 10859 10865 10873 10879 10885 10894 10904 10909 10912 10916 10918 10919 10925 10926 10930 10930 10934 10935 10933 10930 10929 10928 10927 10924 10922 10920 10919 10920 10923 10924 10922
10786 10790 10792 10792 10793 10798 10803 10810 10816 10824 10832 10839 10845 10851 10857 10867 10874 10884 10890 10895 10901 10904 10903 10916 10924 10928 10929 10928 10921 10920 10924 10922 10919 10919 10920 10920 10918 10915 10913 10912 10914 10915 10917
10765 10769 10773 10777 10780 10782 10785 10789 10796 10805 10813 10819 10827 10832 10840 10849 10860 10869 10874 10880 10882 10886 10896 10900 10911 10920 10928 10923 10915 10906 10915 10908 10905 10913 10913 10914 10912 10909 10907 10906 10904 10906 10909
10739 10744 10753 10759 10760 10761 10767 10776 10779 10785 10791 10796 10804 10811 10819 10829 10840 10850 10858 10865 10866 10871 10880 10888 10898 10910 10917 10909 10904 10898 10894 10899 10895 10900 10904 10904 10903 10901 10898 10895 10894 10896 10898
10717 10721 10727 10733 10738 10742 10750 10757 10762 10769 10772 10777 10782 10790 10801 10811 10820 10832 10840 10848 10853 10858 10867 10873 10884 10885 10892 10888 10884 10884 10883 10882 10882 10886 10891 10891 10887 10889 10888 10885 10882 10883 10884